EXS114 EPKK-EGPF

Flight info

Callsign EXS114
Flight time 2h 34m
Altitude 36000
Route OMFOL DCT DINOV DCT LASIS DCT GODUR DCT GARLU DCT RENEQ DCT AGPED
Aircraft B738/M-SDE2E3FGHIRWXY/LB1

Departure

Time 2026-05-01 09:09
Airport Kraków John Paul II International Airport (EPKK)

Arrival

Time 2026-05-01 11:44
Airport Glasgow Airport (EGPF)
Time Latitude Longitude Altitude Speed Heading
2026-05-01 08:42 50.07582 19.80159 799 ft 0 kts 347°
2026-05-01 09:06 50.07590 19.80156 799 ft 2 kts 347°
2026-05-01 09:06 50.07615 19.80156 785 ft 5 kts 16°
2026-05-01 09:06 50.07641 19.80204 799 ft 7 kts 68°
2026-05-01 09:07 50.07655 19.80284 799 ft 9 kts 78°
2026-05-01 09:07 50.07684 19.80371 799 ft 10 kts 26°
2026-05-01 09:07 50.07757 19.80365 799 ft 11 kts 348°
2026-05-01 09:07 50.07839 19.80339 799 ft 13 kts 346°
2026-05-01 09:08 50.07928 19.80306 799 ft 12 kts 347°
2026-05-01 09:08 50.08008 19.80258 799 ft 12 kts 303°
2026-05-01 09:08 50.08005 19.80148 800 ft 10 kts 258°
2026-05-01 09:08 50.07964 19.79839 799 ft 65 kts 258°
2026-05-01 09:09 50.07809 19.78748 801 ft 137 kts 257°
2026-05-01 09:09 50.07553 19.77034 1167 ft 167 kts 256°
2026-05-01 09:09 50.07302 19.75205 2063 ft 175 kts 258°
2026-05-01 09:09 50.07086 19.73389 3145 ft 175 kts 261°
2026-05-01 09:10 50.06802 19.71410 3583 ft 200 kts 260°
2026-05-01 09:10 50.06485 19.69162 3824 ft 225 kts 260°
2026-05-01 09:10 50.06124 19.66690 4252 ft 240 kts 260°
2026-05-01 09:10 50.05754 19.64054 4631 ft 262 kts 259°
2026-05-01 09:11 50.05357 19.61241 5365 ft 266 kts 261°
2026-05-01 09:11 50.04960 19.58429 6204 ft 272 kts 261°
2026-05-01 09:11 50.04543 19.55484 6966 ft 279 kts 261°
2026-05-01 09:11 50.04122 19.52511 7633 ft 286 kts 261°
2026-05-01 09:12 50.03688 19.49454 8338 ft 291 kts 261°
2026-05-01 09:12 50.03246 19.46350 9077 ft 296 kts 261°
2026-05-01 09:12 50.02820 19.43233 9771 ft 300 kts 267°
2026-05-01 09:12 50.02958 19.40048 10422 ft 295 kts 292°
2026-05-01 09:13 50.03700 19.37009 10824 ft 308 kts 298°
2026-05-01 09:13 50.04589 19.33866 11007 ft 330 kts 299°
2026-05-01 09:13 50.05559 19.30514 11239 ft 349 kts 299°
2026-05-01 09:13 50.06560 19.27014 11794 ft 356 kts 299°
2026-05-01 09:14 50.07566 19.23445 12494 ft 360 kts 298°
2026-05-01 09:14 50.08561 19.19876 13215 ft 363 kts 298°
2026-05-01 09:14 50.09572 19.16230 13905 ft 367 kts 298°
2026-05-01 09:14 50.10574 19.12606 14503 ft 371 kts 298°
2026-05-01 09:15 50.11610 19.08844 15090 ft 375 kts 299°
2026-05-01 09:15 50.12642 19.05088 15689 ft 379 kts 299°
2026-05-01 09:15 50.13676 19.01320 16249 ft 384 kts 299°
2026-05-01 09:15 50.14731 18.97470 16829 ft 388 kts 299°
2026-05-01 09:16 50.15806 18.93544 17422 ft 392 kts 299°
2026-05-01 09:16 50.16875 18.89632 17983 ft 396 kts 299°
2026-05-01 09:16 50.17959 18.85660 18553 ft 400 kts 299°
2026-05-01 09:17 50.20165 18.77548 19563 ft 407 kts 299°
2026-05-01 09:17 50.21278 18.73445 20068 ft 410 kts 299°
2026-05-01 09:17 50.23503 18.65219 21037 ft 417 kts 299°
2026-05-01 09:18 50.24615 18.61006 21500 ft 420 kts 299°
2026-05-01 09:18 50.26828 18.52521 22431 ft 426 kts 299°
2026-05-01 09:19 50.29085 18.43873 23317 ft 433 kts 299°
2026-05-01 09:19 50.30237 18.39461 23754 ft 436 kts 299°
2026-05-01 09:19 50.31382 18.35086 24159 ft 438 kts 299°
2026-05-01 09:20 50.33708 18.26183 24907 ft 443 kts 299°
2026-05-01 09:20 50.36050 18.17175 25622 ft 447 kts 299°
2026-05-01 09:21 50.38396 18.08108 26320 ft 451 kts 298°
2026-05-01 09:21 50.39577 18.03528 26666 ft 453 kts 298°
2026-05-01 09:21 50.41943 17.94330 27324 ft 458 kts 298°
2026-05-01 09:22 50.44322 17.85049 27939 ft 462 kts 298°
2026-05-01 09:22 50.46806 17.75669 28552 ft 464 kts 300°
2026-05-01 09:23 50.48120 17.71072 28848 ft 465 kts 301°
2026-05-01 09:23 50.50822 17.61755 29420 ft 469 kts 301°
2026-05-01 09:24 50.53491 17.52433 29995 ft 472 kts 300°
2026-05-01 09:24 50.54821 17.47731 30397 ft 470 kts 300°
2026-05-01 09:24 50.57021 17.39901 31007 ft 467 kts 300°
2026-05-01 09:25 50.59634 17.30560 31597 ft 467 kts 300°
2026-05-01 09:25 50.62235 17.21234 32235 ft 464 kts 300°
2026-05-01 09:26 50.63525 17.16596 32535 ft 464 kts 300°
2026-05-01 09:26 50.66109 17.07280 33104 ft 463 kts 300°
2026-05-01 09:26 50.67392 17.02640 33383 ft 462 kts 299°
2026-05-01 09:27 50.69963 16.93314 33966 ft 461 kts 299°
2026-05-01 09:27 50.71224 16.88724 34218 ft 460 kts 299°
2026-05-01 09:27 50.72515 16.84021 34475 ft 459 kts 299°
2026-05-01 09:28 50.73793 16.79353 34720 ft 459 kts 299°
2026-05-01 09:28 50.75072 16.74671 34925 ft 458 kts 299°
2026-05-01 09:28 50.76339 16.70023 35152 ft 458 kts 299°
2026-05-01 09:28 50.77589 16.65429 35369 ft 457 kts 298°
2026-05-01 09:29 50.80081 16.56243 35778 ft 456 kts 298°
2026-05-01 09:29 50.81351 16.51548 35990 ft 455 kts 298°
2026-05-01 09:30 50.83830 16.42357 36371 ft 454 kts 298°
2026-05-01 09:30 50.87541 16.28529 36387 ft 454 kts 298°
2026-05-01 09:31 50.90003 16.19307 36389 ft 451 kts 298°
2026-05-01 09:32 50.93892 16.05895 36386 ft 440 kts 308°
2026-05-01 09:32 50.99133 15.93923 36405 ft 438 kts 310°
2026-05-01 09:33 51.02618 15.85994 36401 ft 440 kts 309°
2026-05-01 09:34 51.07858 15.73858 36410 ft 443 kts 309°
2026-05-01 09:34 51.13056 15.61708 36407 ft 446 kts 309°
2026-05-01 09:35 51.18306 15.49384 36407 ft 449 kts 308°
2026-05-01 09:36 51.21812 15.41121 36407 ft 449 kts 308°
2026-05-01 09:36 51.25312 15.32848 36406 ft 449 kts 308°
2026-05-01 09:37 51.28793 15.24593 36414 ft 448 kts 308°
2026-05-01 09:37 51.34011 15.12169 36414 ft 447 kts 308°
2026-05-01 09:38 51.39177 14.99814 36413 ft 445 kts 307°
2026-05-01 09:39 51.43373 14.86416 36414 ft 449 kts 296°
2026-05-01 09:39 51.45699 14.77163 36415 ft 449 kts 295°
2026-05-01 09:40 51.49245 14.63220 36418 ft 448 kts 296°
2026-05-01 09:41 51.51624 14.53953 36420 ft 449 kts 296°
2026-05-01 09:41 51.55167 14.40115 36420 ft 449 kts 295°
2026-05-01 09:42 51.57537 14.30806 36429 ft 449 kts 295°
2026-05-01 09:43 51.62267 14.12103 36428 ft 450 kts 295°
2026-05-01 09:43 51.64603 14.02807 36428 ft 450 kts 295°
2026-05-01 09:44 51.68133 13.88686 36425 ft 450 kts 295°
2026-05-01 09:45 51.70449 13.79374 36427 ft 449 kts 295°
2026-05-01 09:45 51.73941 13.65255 36426 ft 449 kts 294°
2026-05-01 09:46 51.76247 13.55882 36422 ft 448 kts 294°
2026-05-01 09:46 51.78537 13.46535 36425 ft 448 kts 294°
2026-05-01 09:47 51.80826 13.37157 36424 ft 447 kts 294°
2026-05-01 09:47 51.82774 13.29408 36420 ft 446 kts 299°
2026-05-01 09:48 51.86168 13.21148 36434 ft 440 kts 310°
2026-05-01 09:48 51.89980 13.13362 36426 ft 440 kts 311°
2026-05-01 09:49 51.93752 13.05625 36421 ft 440 kts 310°
2026-05-01 09:49 51.97521 12.97773 36422 ft 440 kts 310°
2026-05-01 09:50 52.01267 12.89899 36420 ft 440 kts 310°
2026-05-01 09:50 52.04995 12.82030 36423 ft 440 kts 310°
2026-05-01 09:51 52.08718 12.74146 36423 ft 440 kts 309°
2026-05-01 09:51 52.12417 12.66293 36422 ft 440 kts 309°
2026-05-01 09:52 52.16174 12.58294 36435 ft 440 kts 309°
2026-05-01 09:52 52.19871 12.50395 36426 ft 441 kts 309°
2026-05-01 09:53 52.23597 12.42412 36423 ft 441 kts 309°
2026-05-01 09:53 52.27269 12.34518 36426 ft 441 kts 309°
2026-05-01 09:54 52.30973 12.26532 36432 ft 441 kts 309°
2026-05-01 09:54 52.34707 12.18456 36428 ft 441 kts 309°
2026-05-01 09:55 52.38389 12.10465 36432 ft 441 kts 308°
2026-05-01 09:55 52.42135 12.02311 36443 ft 441 kts 308°
2026-05-01 09:56 52.45761 11.94395 36428 ft 441 kts 308°
2026-05-01 09:56 52.49449 11.86316 36433 ft 441 kts 308°
2026-05-01 09:57 52.53121 11.78246 36433 ft 441 kts 308°
2026-05-01 09:57 52.56799 11.70139 36423 ft 442 kts 308°
2026-05-01 09:58 52.60454 11.62058 36425 ft 442 kts 308°
2026-05-01 09:58 52.64139 11.53882 36416 ft 442 kts 308°
2026-05-01 09:59 52.67788 11.45761 36423 ft 442 kts 307°
2026-05-01 09:59 52.71441 11.37604 36436 ft 442 kts 307°
2026-05-01 10:00 52.75088 11.29435 36424 ft 443 kts 307°
2026-05-01 10:00 52.78730 11.21252 36430 ft 443 kts 307°
2026-05-01 10:01 52.82359 11.12980 36414 ft 444 kts 303°
2026-05-01 10:01 52.83852 11.08452 36398 ft 445 kts 292°
2026-05-01 10:01 52.85025 11.03748 36441 ft 445 kts 292°
2026-05-01 10:02 52.87266 10.94205 36433 ft 445 kts 292°
2026-05-01 10:02 52.89511 10.84612 36419 ft 446 kts 292°
2026-05-01 10:03 52.91776 10.75058 36429 ft 446 kts 292°
2026-05-01 10:03 52.94074 10.65411 36427 ft 447 kts 292°
2026-05-01 10:04 52.96355 10.55811 36416 ft 447 kts 292°
2026-05-01 10:04 52.98624 10.46219 36431 ft 447 kts 292°
2026-05-01 10:05 53.00905 10.36531 36430 ft 447 kts 292°
2026-05-01 10:05 53.03169 10.26867 36428 ft 447 kts 292°
2026-05-01 10:06 53.05425 10.17197 36426 ft 447 kts 292°
2026-05-01 10:06 53.07663 10.07560 36424 ft 447 kts 292°
2026-05-01 10:07 53.09916 9.97811 36426 ft 446 kts 292°
2026-05-01 10:07 53.12132 9.88178 36428 ft 446 kts 292°
2026-05-01 10:08 53.15434 9.73743 36424 ft 445 kts 292°
2026-05-01 10:09 53.17617 9.64149 36421 ft 444 kts 292°
2026-05-01 10:09 53.19806 9.54484 36428 ft 444 kts 292°
2026-05-01 10:10 53.21982 9.44831 36426 ft 444 kts 292°
2026-05-01 10:10 53.25210 9.30428 36423 ft 443 kts 292°
2026-05-01 10:11 53.27354 9.20809 36421 ft 443 kts 291°
2026-05-01 10:11 53.29505 9.11108 36413 ft 443 kts 291°
2026-05-01 10:12 53.31285 9.03051 36416 ft 443 kts 291°
2026-05-01 10:13 53.34821 8.86944 36410 ft 443 kts 291°
2026-05-01 10:13 53.36940 8.77233 36409 ft 444 kts 291°
2026-05-01 10:14 53.40099 8.62672 36407 ft 444 kts 291°
2026-05-01 10:14 53.42205 8.52906 36403 ft 444 kts 291°
2026-05-01 10:15 53.44291 8.43187 36405 ft 444 kts 291°
2026-05-01 10:15 53.46384 8.33386 36400 ft 445 kts 291°
2026-05-01 10:16 53.48474 8.23556 36395 ft 445 kts 291°
2026-05-01 10:17 53.51564 8.08928 36386 ft 445 kts 291°
2026-05-01 10:17 53.54656 7.94187 36379 ft 445 kts 291°
2026-05-01 10:18 53.57398 7.81022 36373 ft 445 kts 290°
2026-05-01 10:19 53.59432 7.71202 36377 ft 445 kts 290°
2026-05-01 10:19 53.61462 7.61350 36373 ft 445 kts 290°
2026-05-01 10:20 53.64496 7.46537 36376 ft 445 kts 290°
2026-05-01 10:20 53.66498 7.36705 36373 ft 445 kts 290°
2026-05-01 10:21 53.69495 7.21885 36373 ft 445 kts 290°
2026-05-01 10:22 53.72464 7.07095 36371 ft 445 kts 290°
2026-05-01 10:23 53.75433 6.92196 36374 ft 445 kts 290°
2026-05-01 10:23 53.78375 6.77312 36375 ft 445 kts 289°
2026-05-01 10:24 53.82263 6.57468 36369 ft 445 kts 289°
2026-05-01 10:25 53.86144 6.37460 36366 ft 445 kts 289°
2026-05-01 10:26 53.88056 6.27520 36363 ft 446 kts 289°
2026-05-01 10:27 53.91880 6.07491 36366 ft 446 kts 288°
2026-05-01 10:28 53.94727 5.92441 36363 ft 447 kts 288°
2026-05-01 10:28 53.97553 5.77381 36355 ft 447 kts 288°
2026-05-01 10:29 54.00370 5.62243 36353 ft 447 kts 288°
2026-05-01 10:30 54.04093 5.42053 36350 ft 448 kts 288°
2026-05-01 10:31 54.07788 5.21793 36340 ft 449 kts 287°
2026-05-01 10:32 54.10540 5.06555 36338 ft 449 kts 287°
2026-05-01 10:33 54.14183 4.86189 36332 ft 450 kts 287°
2026-05-01 10:34 54.16901 4.70842 36328 ft 450 kts 286°
2026-05-01 10:34 54.18696 4.60640 36322 ft 450 kts 286°
2026-05-01 10:35 54.21384 4.45242 36319 ft 450 kts 286°
2026-05-01 10:35 54.23157 4.35026 36318 ft 450 kts 285°
2026-05-01 10:36 54.25795 4.19612 36313 ft 450 kts 285°
2026-05-01 10:37 54.27533 4.09295 36313 ft 450 kts 285°
2026-05-01 10:37 54.30116 3.93869 36309 ft 450 kts 285°
2026-05-01 10:38 54.31812 3.83669 36311 ft 450 kts 284°
2026-05-01 10:38 54.33520 3.73347 36310 ft 450 kts 284°
2026-05-01 10:39 54.35205 3.63098 36308 ft 450 kts 284°
2026-05-01 10:39 54.36896 3.52748 36300 ft 450 kts 284°
2026-05-01 10:40 54.38581 3.42370 36298 ft 450 kts 284°
2026-05-01 10:40 54.40246 3.32060 36297 ft 450 kts 284°
2026-05-01 10:41 54.41902 3.21734 36296 ft 450 kts 284°
2026-05-01 10:42 54.44375 3.06203 36291 ft 450 kts 283°
2026-05-01 10:42 54.46018 2.95805 36290 ft 450 kts 283°
2026-05-01 10:43 54.47652 2.85398 36286 ft 451 kts 283°
2026-05-01 10:43 54.49287 2.74921 36282 ft 451 kts 283°
2026-05-01 10:44 54.50910 2.64454 36281 ft 451 kts 283°
2026-05-01 10:44 54.52516 2.54027 36276 ft 452 kts 283°
2026-05-01 10:45 54.54117 2.43565 36276 ft 452 kts 283°
2026-05-01 10:45 54.55703 2.33140 36270 ft 452 kts 283°
2026-05-01 10:46 54.57296 2.22601 36267 ft 452 kts 283°
2026-05-01 10:46 54.58871 2.12106 36264 ft 453 kts 283°
2026-05-01 10:47 54.60445 2.01554 36264 ft 453 kts 282°
2026-05-01 10:47 54.62000 1.91059 36259 ft 453 kts 282°
2026-05-01 10:48 54.63548 1.80543 36258 ft 454 kts 282°
2026-05-01 10:48 54.65102 1.69910 36255 ft 454 kts 282°
2026-05-01 10:49 54.66630 1.59386 36252 ft 454 kts 282°
2026-05-01 10:49 54.68156 1.48809 36245 ft 454 kts 282°
2026-05-01 10:50 54.69682 1.38156 36252 ft 454 kts 282°
2026-05-01 10:50 54.71183 1.27604 36242 ft 454 kts 281°
2026-05-01 10:51 54.72684 1.16984 36243 ft 453 kts 281°
2026-05-01 10:51 54.74167 1.06413 36235 ft 453 kts 281°
2026-05-01 10:52 54.75651 0.95764 36236 ft 453 kts 281°
2026-05-01 10:52 54.77124 0.85119 36232 ft 453 kts 281°
2026-05-01 10:53 54.78584 0.74498 36235 ft 453 kts 281°
2026-05-01 10:53 54.79786 0.65692 36224 ft 453 kts 281°
2026-05-01 10:54 54.81464 0.53312 36230 ft 454 kts 280°
2026-05-01 10:54 54.82900 0.42630 36219 ft 454 kts 280°
2026-05-01 10:55 54.84096 0.33682 36219 ft 454 kts 280°
2026-05-01 10:55 54.85513 0.22999 36211 ft 454 kts 280°
2026-05-01 10:56 54.86923 0.12299 36214 ft 454 kts 280°
2026-05-01 10:56 54.88326 0.01568 36205 ft 454 kts 279°
2026-05-01 10:57 54.89712 -0.09109 36206 ft 454 kts 279°
2026-05-01 10:57 54.91095 -0.19844 36196 ft 454 kts 279°
2026-05-01 10:58 54.92462 -0.30539 36200 ft 454 kts 279°
2026-05-01 10:58 54.93824 -0.41273 36194 ft 454 kts 279°
2026-05-01 10:59 54.95178 -0.52024 36196 ft 454 kts 279°
2026-05-01 10:59 54.96528 -0.62824 36187 ft 454 kts 279°
2026-05-01 11:00 54.97861 -0.73576 36159 ft 454 kts 279°
2026-05-01 11:00 54.98521 -0.78945 35644 ft 461 kts 278°
2026-05-01 11:00 54.99190 -0.84389 35280 ft 454 kts 278°
2026-05-01 11:00 54.99853 -0.89796 34827 ft 451 kts 278°
2026-05-01 11:01 55.00502 -0.95116 34408 ft 448 kts 278°
2026-05-01 11:01 55.01143 -1.00391 33955 ft 445 kts 278°
2026-05-01 11:01 55.01780 -1.05658 33490 ft 441 kts 278°
2026-05-01 11:01 55.02405 -1.10844 33046 ft 438 kts 278°
2026-05-01 11:02 55.03025 -1.16016 32652 ft 434 kts 278°
2026-05-01 11:02 55.03640 -1.21164 32223 ft 430 kts 278°
2026-05-01 11:02 55.04242 -1.26218 31830 ft 427 kts 278°
2026-05-01 11:02 55.04845 -1.31307 31418 ft 424 kts 278°
2026-05-01 11:03 55.05435 -1.36309 31025 ft 421 kts 277°
2026-05-01 11:03 55.06021 -1.41288 30628 ft 418 kts 277°
2026-05-01 11:03 55.06606 -1.46278 30237 ft 416 kts 277°
2026-05-01 11:03 55.07191 -1.51289 29782 ft 413 kts 277°
2026-05-01 11:04 55.07761 -1.56185 29339 ft 410 kts 277°
2026-05-01 11:04 55.08326 -1.61060 28936 ft 406 kts 277°
2026-05-01 11:04 55.08880 -1.65858 28525 ft 403 kts 277°
2026-05-01 11:04 55.09427 -1.70616 28140 ft 400 kts 277°
2026-05-01 11:05 55.09972 -1.75370 27732 ft 398 kts 277°
2026-05-01 11:05 55.10512 -1.80094 27335 ft 395 kts 277°
2026-05-01 11:05 55.11049 -1.84802 26950 ft 392 kts 277°
2026-05-01 11:05 55.11578 -1.89465 26572 ft 390 kts 277°
2026-05-01 11:06 55.12211 -1.94091 26172 ft 391 kts 285°
2026-05-01 11:06 55.13247 -1.98422 25780 ft 394 kts 295°
2026-05-01 11:06 55.14588 -2.02592 25411 ft 393 kts 297°
2026-05-01 11:07 55.17373 -2.10850 24609 ft 395 kts 298°
2026-05-01 11:07 55.18774 -2.15014 24199 ft 396 kts 297°
2026-05-01 11:07 55.20172 -2.19209 23775 ft 396 kts 297°
2026-05-01 11:07 55.21541 -2.23354 23319 ft 396 kts 297°
2026-05-01 11:08 55.22909 -2.27520 22888 ft 394 kts 297°
2026-05-01 11:08 55.24273 -2.31689 22468 ft 391 kts 297°
2026-05-01 11:08 55.26939 -2.39879 21681 ft 386 kts 296°
2026-05-01 11:09 55.28269 -2.43976 21276 ft 384 kts 296°
2026-05-01 11:09 55.29586 -2.48039 20901 ft 382 kts 296°
2026-05-01 11:09 55.30891 -2.52071 20524 ft 380 kts 296°
2026-05-01 11:10 55.33486 -2.60113 19748 ft 376 kts 296°
2026-05-01 11:10 55.34767 -2.64095 19379 ft 374 kts 296°
2026-05-01 11:10 55.36046 -2.68073 18989 ft 373 kts 296°
2026-05-01 11:10 55.37309 -2.72009 18629 ft 371 kts 295°
2026-05-01 11:11 55.38576 -2.75965 18222 ft 370 kts 295°
2026-05-01 11:11 55.39832 -2.79895 17811 ft 368 kts 295°
2026-05-01 11:11 55.41097 -2.83857 17410 ft 366 kts 295°
2026-05-01 11:11 55.42326 -2.87710 17045 ft 365 kts 295°
2026-05-01 11:12 55.43563 -2.91597 16672 ft 363 kts 295°
2026-05-01 11:12 55.44794 -2.95469 16303 ft 361 kts 295°
2026-05-01 11:12 55.45985 -2.99350 15926 ft 358 kts 289°
2026-05-01 11:12 55.46654 -3.03517 15578 ft 348 kts 276°
2026-05-01 11:13 55.47076 -3.07715 15228 ft 346 kts 275°
2026-05-01 11:13 55.47481 -3.11886 14886 ft 345 kts 275°
2026-05-01 11:13 55.47896 -3.16055 14536 ft 344 kts 275°
2026-05-01 11:13 55.48319 -3.20163 14179 ft 342 kts 275°
2026-05-01 11:14 55.48752 -3.24271 13824 ft 340 kts 276°
2026-05-01 11:14 55.49185 -3.28372 13450 ft 337 kts 275°
2026-05-01 11:14 55.49608 -3.32372 13112 ft 335 kts 275°
2026-05-01 11:14 55.50245 -3.36390 12721 ft 341 kts 291°
2026-05-01 11:15 55.51376 -3.39943 12428 ft 341 kts 297°
2026-05-01 11:15 55.52655 -3.43556 12059 ft 341 kts 298°
2026-05-01 11:15 55.53926 -3.47098 11690 ft 337 kts 298°
2026-05-01 11:15 55.55160 -3.50559 11347 ft 329 kts 298°
2026-05-01 11:16 55.56356 -3.53949 11016 ft 321 kts 297°
2026-05-01 11:16 55.57490 -3.57199 10682 ft 314 kts 297°
2026-05-01 11:16 55.58634 -3.60501 10381 ft 306 kts 297°
2026-05-01 11:16 55.59728 -3.63673 10090 ft 299 kts 296°
2026-05-01 11:17 55.60799 -3.66788 9749 ft 293 kts 296°
2026-05-01 11:17 55.61850 -3.69854 9441 ft 289 kts 296°
2026-05-01 11:17 55.62890 -3.72898 9156 ft 291 kts 296°
2026-05-01 11:17 55.63944 -3.75988 8879 ft 293 kts 296°
2026-05-01 11:18 55.64993 -3.79062 8573 ft 292 kts 296°
2026-05-01 11:18 55.66039 -3.82129 8271 ft 291 kts 296°
2026-05-01 11:18 55.67099 -3.85240 7973 ft 289 kts 297°
2026-05-01 11:18 55.68118 -3.88230 7651 ft 286 kts 297°
2026-05-01 11:19 55.69143 -3.91245 7354 ft 281 kts 297°
2026-05-01 11:19 55.70147 -3.94172 7174 ft 271 kts 300°
2026-05-01 11:19 55.71492 -3.96420 7151 ft 269 kts 330°
2026-05-01 11:19 55.73247 -3.97405 7129 ft 269 kts 356°
2026-05-01 11:20 55.75095 -3.96990 7151 ft 264 kts 24°
2026-05-01 11:20 55.76623 -3.95297 7159 ft 261 kts 50°
2026-05-01 11:20 55.77609 -3.92638 7150 ft 256 kts 76°
2026-05-01 11:20 55.77882 -3.89595 7148 ft 245 kts 98°
2026-05-01 11:21 55.77561 -3.86695 7125 ft 236 kts 118°
2026-05-01 11:21 55.76812 -3.84154 7130 ft 231 kts 125°
2026-05-01 11:21 55.75981 -3.81734 7131 ft 229 kts 126°
2026-05-01 11:21 55.75145 -3.79318 7152 ft 231 kts 126°
2026-05-01 11:22 55.74296 -3.76853 7127 ft 235 kts 126°
2026-05-01 11:22 55.73451 -3.74384 7127 ft 233 kts 127°
2026-05-01 11:22 55.72355 -3.72365 7131 ft 224 kts 150°
2026-05-01 11:22 55.70957 -3.71243 7139 ft 220 kts 167°
2026-05-01 11:23 55.69454 -3.71008 7149 ft 223 kts 185°
2026-05-01 11:23 55.67941 -3.71749 7120 ft 230 kts 205°
2026-05-01 11:23 55.66653 -3.73506 7145 ft 235 kts 226°
2026-05-01 11:23 55.65848 -3.76005 7130 ft 245 kts 247°
2026-05-01 11:24 55.65621 -3.79090 7151 ft 254 kts 268°
2026-05-01 11:24 55.66051 -3.82121 7123 ft 263 kts 291°
2026-05-01 11:24 55.67903 -3.87733 7131 ft 262 kts 297°
2026-05-01 11:25 55.68856 -3.90477 7147 ft 262 kts 297°
2026-05-01 11:25 55.70956 -3.95744 7110 ft 268 kts 321°
2026-05-01 11:25 55.72645 -3.97064 7139 ft 266 kts 351°
2026-05-01 11:26 55.74445 -3.96875 7142 ft 261 kts 21°
2026-05-01 11:26 55.76967 -3.92578 7143 ft 255 kts 78°
2026-05-01 11:26 55.77150 -3.89535 7140 ft 245 kts 102°
2026-05-01 11:27 55.76682 -3.86699 7125 ft 235 kts 121°
2026-05-01 11:27 55.75888 -3.84223 7136 ft 231 kts 126°
2026-05-01 11:27 55.75041 -3.81789 7147 ft 232 kts 126°
2026-05-01 11:27 55.74190 -3.79336 7137 ft 235 kts 126°
2026-05-01 11:28 55.73337 -3.76854 7132 ft 236 kts 126°
2026-05-01 11:28 55.72758 -3.75224 7127 ft 233 kts 131°
2026-05-01 11:28 55.71556 -3.73448 7145 ft 223 kts 155°
2026-05-01 11:29 55.68572 -3.72890 7134 ft 221 kts 196°
2026-05-01 11:29 55.67214 -3.74182 7131 ft 226 kts 218°
2026-05-01 11:29 55.65863 -3.79235 7152 ft 243 kts 263°
2026-05-01 11:30 55.66139 -3.82250 7149 ft 257 kts 288°
2026-05-01 11:30 55.66975 -3.85095 7150 ft 264 kts 296°
2026-05-01 11:30 55.67939 -3.87871 7131 ft 263 kts 297°
2026-05-01 11:30 55.68890 -3.90593 7113 ft 255 kts 297°
2026-05-01 11:31 55.69798 -3.93228 7134 ft 255 kts 297°
2026-05-01 11:31 55.70918 -3.95690 7122 ft 265 kts 321°
2026-05-01 11:31 55.72618 -3.97035 7151 ft 275 kts 350°
2026-05-01 11:31 55.74508 -3.96839 7146 ft 272 kts 21°
2026-05-01 11:32 55.76074 -3.95089 7142 ft 262 kts 52°
2026-05-01 11:32 55.76936 -3.92346 7151 ft 252 kts 81°
2026-05-01 11:32 55.77024 -3.89304 7156 ft 245 kts 104°
2026-05-01 11:32 55.76461 -3.86507 7130 ft 240 kts 130°
2026-05-01 11:33 55.75225 -3.84624 7141 ft 234 kts 156°
2026-05-01 11:33 55.73672 -3.83844 7146 ft 230 kts 177°
2026-05-01 11:33 55.72109 -3.84215 7119 ft 229 kts 200°
2026-05-01 11:33 55.70784 -3.85670 7128 ft 229 kts 221°
2026-05-01 11:34 55.69900 -3.88016 7122 ft 233 kts 245°
2026-05-01 11:34 55.69630 -3.90932 7135 ft 243 kts 268°
2026-05-01 11:34 55.70022 -3.93850 7144 ft 255 kts 290°
2026-05-01 11:34 55.70580 -3.96871 6896 ft 261 kts 275°
2026-05-01 11:35 55.70789 -4.00064 6621 ft 257 kts 270°
2026-05-01 11:35 55.70928 -4.03196 6406 ft 253 kts 270°
2026-05-01 11:35 55.71066 -4.06294 6222 ft 253 kts 270°
2026-05-01 11:35 55.71217 -4.09428 6002 ft 253 kts 270°
2026-05-01 11:36 55.71376 -4.12500 5795 ft 251 kts 271°
2026-05-01 11:36 55.71546 -4.15597 5605 ft 248 kts 271°
2026-05-01 11:36 55.71716 -4.18630 5420 ft 245 kts 271°
2026-05-01 11:36 55.71889 -4.21625 5236 ft 242 kts 271°
2026-05-01 11:37 55.72058 -4.24548 5069 ft 243 kts 271°
2026-05-01 11:37 55.72234 -4.27560 4906 ft 246 kts 271°
2026-05-01 11:37 55.72411 -4.30605 4705 ft 249 kts 271°
2026-05-01 11:37 55.72587 -4.33649 4512 ft 249 kts 271°
2026-05-01 11:38 55.72764 -4.36681 4313 ft 246 kts 272°
2026-05-01 11:38 55.72940 -4.39702 4129 ft 245 kts 272°
2026-05-01 11:38 55.73115 -4.42706 3947 ft 243 kts 272°
2026-05-01 11:38 55.73289 -4.45683 3798 ft 243 kts 272°
2026-05-01 11:39 55.73463 -4.48715 3581 ft 245 kts 272°
2026-05-01 11:39 55.73632 -4.51646 3424 ft 237 kts 272°
2026-05-01 11:39 55.73798 -4.54516 3198 ft 231 kts 272°
2026-05-01 11:39 55.73961 -4.57362 3025 ft 226 kts 272°
2026-05-01 11:40 55.74154 -4.60047 2870 ft 219 kts 284°
2026-05-01 11:40 55.74968 -4.62247 2676 ft 208 kts 327°
2026-05-01 11:40 55.76287 -4.62786 2590 ft 196 kts 13°
2026-05-01 11:40 55.77405 -4.61625 2493 ft 186 kts 51°
2026-05-01 11:41 55.78284 -4.59977 2308 ft 187 kts 49°
2026-05-01 11:41 55.79179 -4.58358 2096 ft 177 kts 49°
2026-05-01 11:41 55.79998 -4.56831 1852 ft 163 kts 49°
2026-05-01 11:41 55.80753 -4.55383 1620 ft 157 kts 49°
2026-05-01 11:42 55.81499 -4.54007 1430 ft 155 kts 49°
2026-05-01 11:42 55.82248 -4.52608 1239 ft 156 kts 50°
2026-05-01 11:42 55.82988 -4.51213 1018 ft 156 kts 48°
2026-05-01 11:42 55.83740 -4.49803 807 ft 156 kts 47°
2026-05-01 11:43 55.84487 -4.48412 594 ft 155 kts 46°
2026-05-01 11:43 55.85223 -4.47031 374 ft 153 kts 47°
2026-05-01 11:43 55.85944 -4.45677 200 ft 151 kts 49°
2026-05-01 11:44 55.87244 -4.43235 30 ft 88 kts 45°
2026-05-01 11:44 55.87522 -4.42718 33 ft 35 kts 46°
2026-05-01 11:44 55.87693 -4.42397 31 ft 26 kts 46°
2026-05-01 11:44 55.87715 -4.42174 25 ft 21 kts 146°
2026-05-01 11:45 55.87592 -4.42209 28 ft 16 kts 222°
2026-05-01 11:45 55.87585 -4.42220 28 ft 0 kts 225°
2026-05-01 11:46 55.87584 -4.42223 28 ft 1 kts 225°
2026-05-01 11:46 55.87565 -4.42257 28 ft 7 kts 225°
2026-05-01 11:46 55.87518 -4.42345 29 ft 12 kts 227°
2026-05-01 11:47 55.87452 -4.42466 31 ft 16 kts 226°
2026-05-01 11:47 55.87353 -4.42611 29 ft 21 kts 206°
2026-05-01 11:47 55.87216 -4.42701 28 ft 23 kts 202°
2026-05-01 11:47 55.87060 -4.42805 29 ft 25 kts 201°
2026-05-01 11:48 55.86896 -4.42936 30 ft 25 kts 207°
2026-05-01 11:48 55.86790 -4.43031 30 ft 15 kts 209°
2026-05-01 11:48 55.86764 -4.43052 31 ft 0 kts 211°